Flag for U.S.A. Weather past 2 weeks in Lynchburg, Virginia, U.S.A.

Now
76 °F

Clear.


Feels Like: 76 °F
Forecast: 69 / 86 °F
Wind: 7 mph from South

Location: Lynchburg Regional Airport

Current Time: Aug 30, 2014 at 11:15:48 PM

Latest Report: Aug 30, 2014 at 9:54 PM


Visibility: 10 mi

Pressure: 30.14 "Hg

Humidity: 91%

Dew point: 73 °F

Location of LynchburgLocation

Historic Weather in Lynchburg — Graph

°F

Lynchburg temperature yesterday

Maximum temperature yesterday: 79 °F (at 4:54 PM)
Minimum temperature yesterday: 63 °F (at 6:54 AM)
Average temperature yesterday: 71 °F

Past Weeks' High & Low Weather Summary

 TemperatureHumidityPressure
High86 °F (Aug 28, 2:54 PM)100% (Aug 15, 11:54 PM)30.23 "Hg (Aug 15, 11:54 PM)
Low53 °F (Aug 27, 6:01 AM)39% (Aug 16, 2:54 PM)29.80 "Hg (Aug 19, 4:54 AM)
Average72 °F82%30.04 "Hg
* Reported Aug 15 9:54 PM — Aug 30 9:54 PM, Lynchburg, Weather by CustomWeather, © 2014

Note: Actual official high and low records may vary slightly from our data, if they occured in-between our weather recording intervals... More about our weather records

Advertising

Lynchburg weather history for previous 24 hours

 ConditionsComfort  
Time TempWeatherWind HumidityBarometerVisibility
9:54 PM
Aug 30
76 °FClear.7 mph91%30.14 "Hg10 mi
8:54 PM77 °FClear.7 mph88%30.13 "Hg10 mi
7:54 PM78 °FSunny.6 mph84%30.12 "Hg10 mi
6:54 PM81 °FSunny.9 mph74%30.11 "Hg10 mi
5:54 PM83 °FSunny.12 mph68%30.11 "Hg10 mi
4:54 PM84 °FPassing clouds.10 mph65%30.12 "Hg10 mi
3:54 PM84 °FPassing clouds.8 mph67%30.14 "Hg10 mi
3:02 PM81 °FPartly sunny.3 mph72%30.19 "Hg10 mi
2:54 PM82 °FBroken clouds.No wind70%30.16 "Hg10 mi
1:54 PM80 °FPassing clouds.6 mph71%30.18 "Hg10 mi
12:54 PM76 °FPartly sunny.3 mph82%30.20 "Hg10 mi
11:54 AM73 °FLow clouds.3 mph90%30.22 "Hg10 mi
10:54 AM72 °FLow clouds.No wind91%30.22 "Hg10 mi
9:54 AM72 °FLow clouds.3 mph91%30.22 "Hg10 mi
8:54 AM71 °FLow clouds.3 mph90%30.22 "Hg10 mi
7:54 AM70 °FLow clouds.6 mph93%30.22 "Hg10 mi
6:54 AM70 °FLow clouds.6 mph93%30.22 "Hg10 mi
5:54 AM70 °FLow clouds.6 mph93%30.20 "Hg10 mi
4:54 AM71 °FOvercast.5 mph93%30.19 "Hg10 mi
3:54 AM72 °FMostly cloudy.5 mph91%30.19 "Hg10 mi
2:54 AM72 °FMostly cloudy.No wind93%30.20 "Hg10 mi
2:02 AM71 °FMostly cloudy.No wind93%30.23 "Hg10 mi
1:54 AM71 °FOvercast.No wind93%30.20 "Hg10 mi
12:54 AM72 °FOvercast.No wind91%30.20 "Hg10 mi
11:54 PM
Aug 29
73 °FOvercast.3 mph88%30.19 "Hg10 mi
Weather by CustomWeather, © 2014

See weather overviewHow to use our weather pages